Location: *
(41.3564°N, 81.5960°W)
Time: 02:14:21
(UTC+00:00)

Daily predictions for brighter satellites

Satellite Brightness Start Highest point End
(mag) Time Altitude Azimuth Time Altitude Azimuth Time Altitude Azimuth
Cosmos 1939 Rocket 4.2 00:02:15 10° SSW 00:05:53 39° W 00:09:34 10° NNW
Cosmos 923 Rocket 3.9 00:04:12 10° S 00:09:09 62° ESE 00:09:09 62° ESE
H-2A R/B 2.2 00:10:50 54° NNE 00:10:50 54° NNE 00:15:07 10° N
YAOGAN 1 4.0 00:22:49 29° NNW 00:22:49 29° NNW 00:25:00 10° NNW
NOSS 3-2 (A) 3.1 00:20:46 10° SSW 00:26:17 77° ESE 00:26:19 77° ESE
Cosmos 158 Rocket 4.1 00:22:29 10° SSW 00:26:32 59° SSW 00:26:32 59° SSW
SL-16 R/B 4.4 00:24:32 10° W 00:28:39 20° NW 00:32:46 10° N
Cosmos 2239 Rocket 4.4 00:24:45 10° N 00:30:57 88° W 00:37:09 10° S
Cosmos 2228 Rocket 3.7 00:28:11 10° SSW 00:32:20 55° W 00:32:20 55° W
BREEZE-M DEB (TANK) 4.2 00:29:52 10° WSW 00:31:24 23° WSW 00:31:24 23° WSW
USA 215 3.7 00:34:27 40° NNE 00:36:25 53° NNW 00:42:43 10° WSW
Cosmos 1680 Rocket 4.3 00:31:57 10° SSW 00:35:23 42° SSW 00:35:23 42° SSW
MOS 1 Rocket 4.4 00:40:37 28° NNW 00:43:14 50° WNW 00:48:25 10° SW
USA 238 DEB 3.5 00:37:13 10° SSW 00:43:43 87° SSE 00:43:43 87° SSE
USA 238 3.5 00:37:19 10° SSW 00:43:47 86° SSE 00:43:47 86° SSE
USA 267 3.6 01:09:12 59° NW 01:09:12 59° NW 01:14:22 10° NW
USA 281 4.5 01:11:12 10° S 01:17:07 36° WSW 01:23:05 10° NW
Milstar 3 Cent rocket 4.3 08:57:58 27° SSE 08:57:58 27° SSE 09:04:56 10° ESE
NOSS 3-4 (A) 4.2 09:23:18 45° NE 09:23:18 45° NE 09:27:38 10° NE
NOSS 3-4 (C) 4.2 09:23:22 46° ENE 09:23:22 46° ENE 09:27:46 10° NE
NOSS 3-2 (C) 4.0 09:22:37 78° NNE 09:22:56 79° NE 09:31:34 10° SE
CENTAUR R/B 3.1 09:23:19 74° N 09:24:09 81° NE 09:33:04 10° SE
Lacrosse 5 3.4 09:29:47 32° ENE 09:29:47 32° ENE 09:32:33 10° NE
SJ 16-02 3.8 09:37:06 16° NE 09:37:06 16° NE 09:38:02 10° NNE
Atlas Centaur 2 3.9 09:34:28 27° S 09:34:28 27° S 09:39:24 10° ESE
ATLAS 2AS CENTAUR R/B 3.1 09:38:11 46° SSW 09:40:53 76° ESE 09:48:47 10° NE
Cosmos 2263 Rocket 3.6 09:48:25 28° N 09:48:25 28° N 09:51:05 10° NNE
NOSS 3-2 (A) 4.3 09:51:01 50° SW 09:51:01 50° SW 09:58:20 10° S
COSMO-SKYMED 1 4.5 09:52:59 10° SE 09:56:40 27° ENE 09:59:36 14° NNE
Lacrosse 4 Rocket 2.1 10:03:37 55° ESE 10:03:37 55° ESE 10:07:13 10° SE
FENGYUN 3A 3.6 10:00:26 10° NNE 10:05:53 86° ESE 10:11:17 10° SSW
USA 238 DEB 4.3 10:08:23 43° SW 10:08:23 43° SW 10:14:46 10° S
USA 238 4.2 10:08:26 43° SW 10:08:26 43° SW 10:14:53 10° S
Genesis I 4.2 10:09:55 43° ESE 10:09:58 43° ESE 10:13:37 10° NE
CZ-4B R/B 4.1 10:12:05 10° SSE 10:12:24 12° SSE 10:12:24 12° SSE
Cosmos 1461 4.2 10:18:00 31° S 10:18:00 31° S 10:20:34 10° S
Cosmos 1603 4.0 10:18:18 46° SW 10:18:18 46° SW 10:22:50 10° S
Cosmos 1709 Rocket 3.9 10:12:43 10° SSW 10:19:01 62° W 10:25:22 10° N
Meteor 2-3 Rocket 3.6 10:13:26 10° S 10:19:09 84° W 10:24:59 10° N
Cosmos 2181 Rocket 3.9 10:13:58 10° N 10:20:12 84° E 10:26:19 10° S
Cosmos 1943 3.3 10:23:32 51° WSW 10:23:32 51° WSW 10:28:57 10° S
deb Chang Zheng 4 3.6 10:20:24 10° NNE 10:24:46 81° ESE 10:29:07 10° SSW
CZ-4C R/B 1.8 10:26:54 39° SW 10:28:48 84° NW 10:34:34 10° NE
ALOS 3.4 10:24:47 10° N 10:27:10 29° N 10:27:10 29° N
BREEZE M DEB (TANK) 4.1 10:19:09 10° SW 10:31:58 54° SSE 10:35:38 10° ENE
Cosmos 990 Rocket 3.9 10:27:58 10° SSW 10:33:12 90° WNW 10:38:30 10° NNE
GPS 2-04 Rocket1 3.6 10:33:14 35° SSW 10:33:37 35° S 10:37:09 10° ESE
SL-4 R/B 3.8 10:37:22 18° N 10:37:22 18° N 10:39:37 10° NE
Cosmos 923 Rocket 3.9 10:35:15 32° NNW 10:37:41 72° WSW 10:42:58 10° S
ERS-2 2.8 10:35:01 10° S 10:37:36 41° SSW 10:37:36 41° SSW
PSLV R/B 4.5 10:36:42 10° SSE 10:40:46 58° ENE 10:44:49 10° N
Cosmos 1782 2.7 10:39:16 32° N 10:41:02 84° W 10:45:04 10° S
Cosmos 1515 Rocket 3.6 10:38:26 11° N 10:42:46 80° E 10:47:13 10° S
Cosmos 1151 Rocket 3.2 10:44:42 46° W 10:44:42 46° W 10:48:39 10° SSW
SKYMED 2 3.5 10:40:14 10° SSE 10:44:34 89° W 10:48:13 15° NNW
ATLAS 3B R/B 2.9 10:39:41 18° NNW 10:45:04 76° NE 10:52:18 10° SE
METEOR-M 4.2 10:39:57 10° N 10:45:09 54° WNW 10:50:19 10° SSW
Cosmos 2074 Rocket 4.0 10:42:53 10° S 10:49:06 88° ESE 10:55:20 10° N
SJ-12 3.7 10:45:29 10° N 10:49:31 67° WNW 10:53:32 10° SSW
Cosmos 158 Rocket 4.0 10:50:04 31° NW 10:52:07 52° WSW 10:56:58 10° S
RESURS DK-1 2.3 10:51:31 18° SW 10:54:27 59° WNW 10:58:34 10° NNE
Meteor PRIRODA 3.5 10:52:27 10° N 10:56:12 81° WNW 10:59:55 10° SSW
ATLAS CENTAUR R/B 1.6 10:56:53 22° NNW 10:59:11 59° NE 11:03:06 10° SE
BREEZE-M DEB 4.1 10:53:01 21° WNW 11:00:11 67° NNE 11:03:42 10° ESE
H-2A R/B 3.1 10:57:52 10° NNE 11:01:47 69° ESE 11:05:37 10° S
Meteor 1-4 Rocket 4.0 11:03:45 20° SW 11:03:45 20° SW 11:05:19 10° SSW
Cosmos 1500 Rocket 3.4 10:59:12 10° S 11:03:30 83° W 11:07:51 10° N
Cosmos 1844 Rocket 2.6 10:58:02 10° SSW 11:03:40 72° WNW 11:09:21 10° NNE
Cosmos 1437 Rocket 4.3 11:00:53 10° N 11:04:22 34° ENE 11:07:50 10° SE
Cosmos 1328 Rocket 4.2 11:04:11 28° WNW 11:05:20 32° W 11:09:17 10° SSW
Cosmos 1680 Rocket 3.6 11:01:31 17° NNW 11:05:31 53° WSW 11:10:39 10° S
FALCON 9 DEB 4.3 11:06:04 24° NNW 11:06:04 24° NNW 11:08:37 10° NNE
FALCON 9 DEB 4.2 11:06:07 25° NNW 11:06:07 25° NNW 11:08:44 10° NNE
Cosmos 2184 Rocket 4.0 11:00:35 10° SSW 11:06:52 71° W 11:13:15 10° N
Lacrosse 5 2.8 11:09:03 24° WNW 11:10:50 30° NNW 11:15:17 10° NNE
SJ 16-02 3.1 11:14:10 16° NW 11:14:10 16° NW 11:15:43 10° NNW
NOSS 3-4 (A) 4.4 11:10:47 21° WNW 11:12:57 26° NW 11:18:11 10° NNE
NOSS 3-4 (C) 4.4 11:10:52 21° WNW 11:13:04 26° NW 11:18:19 10° NNE
CENTAUR R/B 4.1 11:10:34 19° WNW 11:14:22 26° WSW 11:21:17 10° SSW
Okean O Rocket 3.8 11:10:55 10° NE 11:14:49 29° E 11:18:43 10° SSE
Cosmos 372 Rocket 4.3 11:10:59 10° S 11:16:01 68° ESE 11:21:06 10° NNE
COSMOS 2455 3.1 11:10:18 10° SSW 11:16:17 73° ESE 11:22:19 10° NNE
OAO 2 Rocket 4.3 11:12:56 15° WSW 11:16:35 38° S 11:21:18 10° ESE
EO 1 Delta rocket 3.8 11:11:46 10° S 11:16:57 80° W 11:21:36 10° NNW
ADEOS 4.5 11:13:41 10° N 11:17:53 25° WNW 11:22:05 10° WSW
Cosmos 1844 3.6 11:12:45 10° SSW 11:18:16 68° WNW 11:23:51 10° NNE
USA 234 3.6 11:15:55 10° NE 11:22:26 68° SE 11:28:56 10° SW
Atlas Centaur 2 3.7 11:17:39 10° WSW 11:22:56 27° S 11:27:18 10° SE
BREEZE-M (TANK) 4.2 11:12:55 10° SW 11:23:12 50° SSE 11:26:21 10° ENE
Sich 1 3.7 11:19:25 10° S 11:23:45 59° E 11:28:09 10° NNE
Cosmos 1689 Rocket 2.9 11:22:27 10° SSW 11:24:57 28° W 11:26:00 22° WNW
CZ-4B DEB 4.4 11:19:30 10° NNE 11:24:59 76° ESE 11:30:27 10° S
Cosmos 2112 Rocket 4.5 11:20:27 11° NW 11:25:18 41° WSW 11:30:17 10° S
SJ-7 4.3 11:23:09 10° N 11:27:13 74° WNW 11:31:20 10° SSW
Cosmos 1743 Rocket 3.9 11:23:21 10° SSW 11:27:36 44° WNW 11:31:54 10° N
Meteor 2-6 Rocket 4.2 11:22:43 10° NNW 11:28:02 59° W 11:33:23 10° S
Aureole 2 Rocket 1.9 11:26:44 10° SW 11:29:09 42° WNW 11:31:37 10° N
H-2A R/B 2.4 11:26:18 10° NNE 11:30:09 76° ESE 11:33:58 10° S
Cosmos 2263 Rocket 4.0 11:30:10 12° NW 11:30:27 12° NW 11:32:35 10° NNW
ATLAS 2AS CENTAUR R/B 3.7 11:25:45 10° W 11:32:37 32° NW 11:39:29 10° NNE
COSMO-SKYMED 1 3.6 11:29:06 10° SSW 11:32:45 26° W 11:36:25 10° NW
Cosmos 1898 Rocket 4.2 11:28:43 10° SW 11:33:25 32° WNW 11:38:10 10° N
ATLAS 5 CENTAUR R/B 2.8 11:30:06 10° S 11:33:51 43° ESE 11:37:59 10° NE
Gbstr 26 Del rocket 2.9 11:33:44 15° WNW 11:36:39 57° SW 11:40:39 10° SE
BREEZE-M DEB (TANK) 3.3 11:36:43 15° WNW 11:38:54 43° N 11:43:49 10° ENE
CZ-2C R/B 3.5 11:33:59 10° SSE 11:39:18 52° ENE 11:44:32 10° N
Lacrosse 4 Rocket 3.5 11:39:58 11° W 11:40:55 11° WSW 11:42:24 10° WSW
Envisat 2.9 11:36:08 10° N 11:41:13 74° WNW 11:46:16 10° SSW
APEX 4.5 11:36:42 10° SSW 11:42:34 76° WNW 11:49:31 10° NNE
CZ-4B R/B 4.1 11:39:23 10° NNW 11:42:59 24° WNW 11:46:31 10° WSW
Cosmos 1805 Rocket 3.7 11:42:21 10° SSW 11:46:42 56° W 11:51:05 10° N
YAOGAN 6 2.6 11:43:36 10° N 11:47:01 51° WNW 11:50:23 10° SSW
Cosmos 1862 4.2 11:44:59 10° SW 11:48:29 28° WNW 11:52:00 10° NNW
Cosmos 1937 Rocket 4.2 11:45:34 10° WSW 11:50:04 30° WNW 11:54:38 10° N
Nadezhda 3 Rocket 4.1 11:44:24 10° NNW 11:50:32 55° W 11:56:34 10° SSW
MOS 1 Rocket 3.7 11:46:43 10° S 11:51:17 46° W 11:56:10 10° NNW
Cosmos 1666 Rocket 3.7 11:49:31 10° S 11:53:49 80° E 11:58:10 10° N
Cosmos 2082 Rocket 4.1 11:49:31 10° N 11:54:14 26° NE 11:58:55 10° ESE
